Location: Montbazon
(47.2835°N, 0.6999°E)
Time: 17:15:21
(UTC+00:00)

NOSS 2-1 (C) - Pass Details

Date: 08 November 2025
Orbit: 375 x 1687 km, 63.3° (Epoch: 09 December)

Event Time Altitude Azimuth Distance (km) Brightness Sun altitude
Exits shadow 06:00:19 13° 284° (WNW) 1,358 4.6 -9.0°
Maximum altitude 06:02:05 18° 322° (NW) 1,066 4.3 -8.7°
Drops below altitude 10° 06:04:16 10° 9° (N) 1,407 5.4 -8.3°
Sets 06:06:39 0° 30° (NNE) 2,251 6.6 -7.9°
